sat.trackr.live / text

‹ back to catalog

STARLINK-30796

NORAD 58189 · 2023-167Q

PAYLOAD ACTIVE UNKNOWN

§ Identity

Operator
Country
US
Launch date
2023-10-30
Launch site
AFETR
Launch vehicle
Mass (kg)
RCS (m²)

Purposes: comms

External: N2YO · Heavens-Above · Gunter

§ Orbital elements

Epoch: 2026-05-25T03:49:13.023264Z

Period
94.27 min
Inclination
43.0016°
Eccentricity
0.0001046
Mean motion
15.27571500 rev/d
Perigee alt
482.4 km
Apogee alt
483.8 km
Semi-major
6,861.2 km
B*
5.8892e-5
RAAN
71.2320°
Arg perigee
241.2407°
Mean anomaly
118.8339°
Rev number
14,268

§ Raw data

STARLINK-307961 58189U 23167Q   26145.15917851  .00001358  00000+0  58892-4 0  99972 58189  43.0016  71.2320 0001046 241.2407 118.8339 15.27571500142680

JSON: /api/v1/satellites/58189 · /tle

For live sub-satellite position, see the globe view (requires WebGL).

§ Visibility from observer

Set your observer location to see the next 7 days of passes ≥ 10°. The values pass through the URL so the page stays shareable.

No JS? Fill the form by hand. The geolocation button needs JavaScript.